Location: Unspecified
(0.0000°N, 0.0000°E)
Time: 14:55:27
(UTC+00:00)

deb Delta 126 - Pass Details

Date: 17 February 2026
Orbit: 1137 x 1258 km, 102.0° (Epoch: 8 March)

Event Time Altitude Azimuth Distance (km) Brightness Sun altitude
Rises 03:21:22 0° 168° (SSE) 4,187 ? -42.0°
Reaches altitude 10° 03:24:00 10° 170° (S) 3,227 ? -41.4°
Enters shadow 03:26:46 25° 173° (S) 2,273 ? -40.7°
